Regional Weather Roundup
Issued by NWS

Home | Current Version | Previous Version | Graphics & Text | Print | Product List | Glossary On
Versions: 1 2 3 4 5 6 7 8 9 10 11 12 13 14 15 16 17 18 19 20 21 22 23 24 25 26 27 28 29 30 31 32 33 34 35 36 37 38 39 40 41 42 43 44 45 46 47 48 49 50
000
ASUS43 KIND 281909
RWRIN

WEATHER ROUNDUP FOR INDIANA
NATIONAL WEATHER SERVICE INDIANAPOLIS IN
300 PM EDT SAT MAY 28 2016

NOTE: "FAIR" INDICATES FEW OR NO CLOUDS BELOW 12,000 FEET WITH NO
SIGNIFICANT WEATHER AND/OR OBSTRUCTIONS TO VISIBILITY.

* - STATION DOES NOT REPORT WEATHER SUCH AS PRECIPITATION OR FOG.

+ - STATION NOT QUALITY CONTROLLED BY THE NATIONAL WEATHER SERVICE.
    USE DATA WITH CAUTION...ESPECIALLY DEWPOINT AND RELATIVE
    HUMIDITY OBSERVATIONS.

INZ001>003-010>013-019-020-282000-
NORTHWEST INDIANA

CITY           SKY/WX    TMP DP  RH WIND       PRES   REMARKS
GARY /AIRPORT/ CLOUDY    77  72  83 S14G28    29.95S
KNOX *+          N/A     79  50  36 SW13G20   29.97F
LA PORTE +     CLOUDY    77  65  65 S14G23    29.99S
MICHIGAN CITY+ MOSUNNY   77  64  65 S15G24    29.97S
MONTICELLO +   CLOUDY    84  54  35 S15G24    29.97F
RENSSELAER +   MOSUNNY   79  68  69 SW20      29.98F
VALPARAISO     CLOUDY    79  64  60 S17G24    29.97F

$$

LMZ046-743>745-282000-
SOUTHERN LAKE MICHIGAN

STATION/POSITION TIME  TEMP    WIND        PRES    WAVE
                       AIR SEA DIR/SP/G            HT
                 (UTC) (F)     (DEG/KT/KT) (MB)    (FT)
BURNS HARBOR     1800   75     180/ 13/ 23 1014.2F
MICHIGAN CITY    1800   75     180/ 20/ 24   N/A
5NW MICH CITY    1800   70 58  200/ 17/ 23   N/A     2

$$

INZ004-005-014>016-021>024-282000-
NORTH CENTRAL INDIANA

CITY           SKY/WX    TMP DP  RH WIND       PRES   REMARKS
ELKHART        MOSUNNY   84  66  54 S16       29.98F
GOSHEN         MOSUNNY   85  59  41 S20G28    29.98F
LOGANSPORT +   CLOUDY    86  59  39 SW20G29   29.99F
PERU/GRISSOM   MOSUNNY   83  62  48 SW22G28   29.98F
ROCHESTER +    MOSUNNY   84  61  45 SW12G20   29.99F
SOUTH BEND     LGT RAIN  79  62  56 SW20G28   29.99S
WARSAW +       SUNNY     84  59  42 SW13G24   29.99F

$$

INZ006>009-017-018-025>027-282000-
NORTHEAST INDIANA

CITY           SKY/WX    TMP DP  RH WIND       PRES   REMARKS
ANGOLA *+        N/A     88  63  42 SW14      30.00F
FORT WAYNE     PTSUNNY   87  60  40 SW16G28   30.01F
HUNTINGTON +   MOSUNNY   84  58  40 SW16G23   30.01S

$$

INZ028-029-035-036-043>045-051>053-282000-
WEST CENTRAL INDIANA

CITY           SKY/WX    TMP DP  RH WIND       PRES   REMARKS
CRAWFORDSVL +  MOSUNNY   83  61  47 SW26      30.00S
GREENCASTLE +  MOSUNNY   81  68  65 S9        30.01F
LAFAYETTE      CLOUDY    82  60  47 S12G21    29.98F
TERRE HAUTE    PTSUNNY   84  64  50 S14       29.99F

$$

INZ030>032-037>040-046>048-054>057-064-065-282000-
CENTRAL INDIANA

CITY           SKY/WX    TMP DP  RH WIND       PRES   REMARKS
CP ATTERBURY + CLOUDY    75  70  83 S3        30.05S
COLUMBUS       SUNNY     82  66  57 S16G25    30.04F
FISHERS *+     CLOUDY    82  68  61 SW14      30.03S
FRANKFORT +      N/A     87  42  20 SW17G25   30.01F
GREENWOOD *+   CLOUDY    82  64  54 S10       30.04F
INDIANAPOLIS   CLOUDY    83  64  52 S22G28    30.00F
-EAGLE CREEK   CLOUDY    84  63  49 S13G21    30.01F
KOKOMO *+      MOSUNNY   84  63  48 S17       30.00S
MARION +       CLOUDY    85  59  41 S21G26    30.02F
SHELBYVILLE    MOSUNNY   85  65  51 S18G24    30.03F
ZIONSVILLE +   CLOUDY    83  63  51 S17G23    30.03S

$$

INZ033-034-041-042-049-050-058-059-282000-
EAST CENTRAL INDIANA

CITY           SKY/WX    TMP DP  RH WIND       PRES   REMARKS
MUNCIE         CLOUDY    85  62  46 SW10G18   30.03F

$$

INZ060-061-067>069-081>083-085>088-282000-
SOUTHWEST INDIANA

CITY           SKY/WX    TMP DP  RH WIND       PRES   REMARKS
EVANSVILLE     MOSUNNY   80  62  54 SW14G24   30.02S
HUNTINGBURG *+ CLOUDY    81  66  61 S13G20    30.04S
WASHINGTON +   CLOUDY    76  67  73 S7        30.01S

$$

INZ062-063-066-070>080-084-089>092-282000-
SOUTH CENTRAL AND SOUTHEAST INDIANA

CITY           SKY/WX    TMP DP  RH WIND       PRES   REMARKS
BEDFORD +      CLOUDY    79  73  83 S8        30.04S
BLOOMINGTON    CLOUDY    83  65  54 S9        30.02F
MADISON *+     CLOUDY    81  64  57 S8        30.09S
NORTH VERNON + CLOUDY    84  72  65 S10       30.06F
SEYMOUR +      CLOUDY    82  66  57 S12       30.04F

$$





USA.gov is the U.S. government's official web portal to all federal, state and local government web resources and services.